| time (UTC) | temp F | wind direction | speed knots | gust knots | rain 1hr in | rain 24hr in | rain mn in | humidity % | barometer mb |
| 20260504151042 | 61 | 0 | 0.9 | 7.0 | 0.00 | 0.02 | 0.02 | 75 | 1013.8 |
| 20260504150543 | 60 | 0 | 0.0 | 7.0 | 0.01 | 0.02 | 0.02 | 74 | 1013.8 |
| 20260504141042 | 55 | 0 | 0.0 | 6.1 | 0.02 | 0.02 | 0.02 | 79 | 1014.4 |
| 20260504140543 | 56 | 0 | 0.0 | 4.3 | 0.01 | 0.01 | 0.01 | 77 | 1014.5 |
| 20260504130542 | 56 | 0 | 0.0 | 7.0 | 0.00 | 0.00 | 0.00 | 66 | 1013.8 |
| 20260504110544 | 50 | 0 | 0.0 | 0.9 | 0.00 | 0.00 | 0.00 | 70 | 1013.5 |
| 20260504100542 | 47 | 0 | 0.0 | 0.0 | 0.00 | 0.00 | 0.00 | 71 | 1013.5 |
| 20260504081551 | 47 | 0 | 0.0 | 0.0 | 0.00 | 0.00 | 0.00 | 74 | 1014.2 |
| 20260504081045 | 47 | 0 | 0.0 | 0.0 | 0.00 | 0.00 | 0.00 | 74 | 1014.3 |
| 20260504080543 | 47 | 0 | 0.0 | 0.0 | 0.00 | 0.00 | 0.00 | 75 | 1014.2 |
| 20260504050542 | 51 | 0 | 0.0 | 0.0 | 0.00 | 0.00 | 0.00 | 77 | 1015.7 |
| 20260504045541 | 51 | 0 | 0.0 | 0.0 | 0.00 | 0.00 | 0.00 | 76 | 1015.8 |
| 20260504045042 | 50 | 0 | 0.0 | 0.0 | 0.00 | 0.00 | 0.00 | 72 | 1015.9 |
| 20260504044551 | 50 | 0 | 0.0 | 0.0 | 0.00 | 0.00 | 0.00 | 71 | 1015.9 |
| 20260504044041 | 50 | 0 | 0.0 | 0.0 | 0.00 | 0.00 | 0.00 | 71 | 1016.0 |
| 20260504043545 | 50 | 0 | 0.0 | 0.0 | 0.00 | 0.00 | 0.00 | 71 | 1016.0 |
| 20260504043057 | 50 | 0 | 0.0 | 0.0 | 0.00 | 0.00 | 0.00 | 72 | 1016.0 |
| 20260504042543 | 50 | 0 | 0.0 | 0.0 | 0.00 | 0.00 | 0.00 | 71 | 1015.9 |
| 20260504042042 | 50 | 0 | 0.0 | 0.0 | 0.00 | 0.00 | 0.00 | 73 | 1015.8 |
| 20260504041553 | 50 | 0 | 0.0 | 0.0 | 0.00 | 0.00 | 0.00 | 75 | 1016.0 |
| 20260504041042 | 50 | 0 | 0.0 | 0.0 | 0.00 | 0.00 | 0.00 | 75 | 1016.0 |
| 20260504040542 | 51 | 0 | 0.0 | 0.0 | 0.00 | 0.00 | 0.00 | 74 | 1016.2 |
| 20260504040051 | 51 | 0 | 0.0 | 0.0 | 0.00 | 0.00 | 0.00 | 74 | 1016.2 |
| 20260504035542 | 51 | 0 | 0.0 | 0.0 | 0.00 | 0.00 | 0.00 | 73 | 1016.0 |
| 20260504035042 | 51 | 0 | 0.0 | 0.0 | 0.00 | 0.00 | 0.00 | 74 | 1016.1 |
| 20260504034552 | 51 | 0 | 0.0 | 0.0 | 0.00 | 0.00 | 0.00 | 72 | 1016.0 |
| 20260504034045 | 51 | 0 | 0.0 | 0.0 | 0.00 | 0.00 | 0.00 | 72 | 1015.9 |
| 20260504033548 | 51 | 0 | 0.0 | 0.0 | 0.00 | 0.00 | 0.00 | 72 | 1015.9 |
| 20260504033054 | 51 | 0 | 0.0 | 0.0 | 0.00 | 0.00 | 0.00 | 70 | 1015.9 |
| 20260504032545 | 51 | 0 | 0.0 | 0.0 | 0.00 | 0.00 | 0.00 | 69 | 1016.0 |
| 20260504032050 | 51 | 0 | 0.0 | 0.0 | 0.00 | 0.00 | 0.00 | 65 | 1016.0 |
| 20260504031557 | 51 | 0 | 0.0 | 0.0 | 0.00 | 0.00 | 0.00 | 68 | 1016.0 |
| 20260504031044 | 51 | 0 | 0.0 | 0.0 | 0.00 | 0.00 | 0.00 | 68 | 1015.9 |
| 20260504030542 | 51 | 0 | 0.0 | 0.0 | 0.00 | 0.00 | 0.00 | 69 | 1016.0 |
| 20260504030053 | 51 | 0 | 0.0 | 0.0 | 0.00 | 0.00 | 0.00 | 64 | 1015.9 |
| 20260504025544 | 51 | 0 | 0.0 | 1.7 | 0.00 | 0.00 | 0.00 | 64 | 1015.9 |
| 20260504025044 | 51 | 0 | 0.0 | 1.7 | 0.00 | 0.00 | 0.00 | 65 | 1015.9 |
| 20260504024555 | 51 | 0 | 0.0 | 0.9 | 0.00 | 0.00 | 0.00 | 67 | 1016.0 |
| 20260504024044 | 51 | 0 | 0.0 | 0.0 | 0.00 | 0.00 | 0.00 | 65 | 1015.9 |
| 20260504023545 | 51 | 0 | 0.0 | 0.0 | 0.00 | 0.00 | 0.00 | 66 | 1015.9 |
| 20260504023050 | 52 | 0 | 0.0 | 0.0 | 0.00 | 0.00 | 0.00 | 67 | 1016.0 |
| 20260504022545 | 52 | 0 | 0.0 | 0.0 | 0.00 | 0.00 | 0.00 | 66 | 1015.8 |
| 20260504022046 | 52 | 0 | 0.0 | 0.0 | 0.00 | 0.00 | 0.00 | 65 | 1015.7 |
| 20260504021557 | 52 | 0 | 0.0 | 0.0 | 0.00 | 0.00 | 0.00 | 63 | 1015.5 |
| 20260504021044 | 52 | 0 | 0.0 | 0.0 | 0.00 | 0.00 | 0.00 | 62 | 1015.5 |
| 20260504020548 | 52 | 0 | 0.0 | 0.0 | 0.00 | 0.00 | 0.00 | 61 | 1015.4 |
| 20260504020127 | 52 | 0 | 0.0 | 0.0 | 0.00 | 0.00 | 0.00 | 60 | 1015.2 |
| 20260504015546 | 52 | 0 | 0.0 | 0.0 | 0.00 | 0.00 | 0.00 | 60 | 1015.2 |
| 20260504015044 | 53 | 0 | 0.0 | 0.0 | 0.00 | 0.00 | 0.00 | 59 | 1015.2 |
| 20260504014604 | 53 | 0 | 0.0 | 0.0 | 0.00 | 0.00 | 0.00 | 58 | 1015.2 |
| 20260504014045 | 53 | 0 | 0.0 | 0.0 | 0.00 | 0.00 | 0.00 | 57 | 1015.2 |
| 20260504013544 | 53 | 0 | 0.0 | 0.0 | 0.00 | 0.00 | 0.00 | 55 | 1015.2 |
| 20260504013115 | 54 | 0 | 0.0 | 0.0 | 0.00 | 0.00 | 0.00 | 56 | 1015.3 |
| 20260504012542 | 54 | 0 | 0.0 | 0.0 | 0.00 | 0.00 | 0.00 | 54 | 1015.3 |
| 20260504012047 | 54 | 0 | 0.0 | 0.0 | 0.00 | 0.00 | 0.00 | 53 | 1015.2 |
| 20260504011553 | 54 | 0 | 0.0 | 0.0 | 0.00 | 0.00 | 0.00 | 51 | 1015.2 |
| 20260504011044 | 55 | 0 | 0.0 | 0.0 | 0.00 | 0.00 | 0.00 | 50 | 1015.2 |
| 20260504010541 | 55 | 0 | 0.0 | 0.0 | 0.00 | 0.00 | 0.00 | 49 | 1015.3 |
| 20260504010054 | 55 | 0 | 0.0 | 0.0 | 0.00 | 0.00 | 0.00 | 49 | 1015.3 |
| 20260504005545 | 55 | 0 | 0.0 | 0.0 | 0.00 | 0.00 | 0.00 | 47 | 1015.4 |
| 20260504005042 | 56 | 0 | 0.0 | 0.0 | 0.00 | 0.00 | 0.00 | 47 | 1015.4 |
| 20260504004638 | 56 | 0 | 0.0 | 0.0 | 0.00 | 0.00 | 0.00 | 46 | 1015.3 |
| 20260504004045 | 56 | 0 | 0.0 | 0.0 | 0.00 | 0.00 | 0.00 | 48 | 1015.3 |
| 20260504003545 | 56 | 0 | 0.0 | 0.9 | 0.00 | 0.00 | 0.00 | 46 | 1015.2 |
| 20260504003102 | 57 | 0 | 0.0 | 0.9 | 0.00 | 0.00 | 0.00 | 46 | 1015.2 |
| 20260504002544 | 57 | 0 | 0.0 | 0.0 | 0.00 | 0.00 | 0.00 | 46 | 1015.2 |
| 20260504002042 | 57 | 0 | 0.0 | 0.0 | 0.00 | 0.00 | 0.00 | 46 | 1015.1 |
| 20260504001620 | 57 | 0 | 0.0 | 0.0 | 0.00 | 0.00 | 0.00 | 44 | 1015.2 |
| 20260504001044 | 58 | 0 | 0.0 | 0.0 | 0.00 | 0.00 | 0.00 | 44 | 1015.2 |
| 20260504000545 | 58 | 0 | 0.0 | 0.0 | 0.00 | 0.00 | 0.00 | 43 | 1015.3 |
| 20260504000058 | 58 | 0 | 0.0 | 0.0 | 0.00 | 0.00 | 0.00 | 44 | 1015.3 |
| 20260503235542 | 59 | 0 | 0.0 | 0.0 | 0.00 | 0.00 | 0.00 | 40 | 1015.2 |
| 20260503235044 | 59 | 0 | 0.0 | 0.0 | 0.00 | 0.00 | 0.00 | 42 | 1015.3 |
| 20260503234556 | 59 | 0 | 0.0 | 0.0 | 0.00 | 0.00 | 0.00 | 41 | 1015.2 |
| 20260503234044 | 59 | 0 | 0.0 | 0.0 | 0.00 | 0.00 | 0.00 | 39 | 1015.1 |
| 20260503233542 | 59 | 0 | 0.0 | 0.0 | 0.00 | 0.00 | 0.00 | 40 | 1015.2 |
| 20260503233049 | 60 | 0 | 0.0 | 2.6 | 0.00 | 0.00 | 0.00 | 38 | 1015.3 |
| 20260503232544 | 60 | 0 | 0.0 | 2.6 | 0.00 | 0.00 | 0.00 | 39 | 1015.2 |
| 20260503232044 | 60 | 234 | 0.0 | 0.9 | 0.00 | 0.00 | 0.00 | 39 | 1015.6 |
| 20260503231553 | 60 | 0 | 0.0 | 5.2 | 0.00 | 0.00 | 0.00 | 38 | 1015.7 |
| 20260503231042 | 60 | 0 | 0.0 | 5.2 | 0.00 | 0.00 | 0.00 | 40 | 1015.6 |
| 20260503230545 | 60 | 0 | 0.0 | 1.7 | 0.00 | 0.00 | 0.00 | 39 | 1015.7 |
| 20260503230108 | 60 | 0 | 0.0 | 3.5 | 0.00 | 0.00 | 0.00 | 38 | 1015.9 |
| 20260503225543 | 60 | 0 | 0.0 | 3.5 | 0.00 | 0.00 | 0.00 | 38 | 1015.9 |
| 20260503225042 | 60 | 0 | 0.0 | 3.5 | 0.00 | 0.00 | 0.00 | 40 | 1015.8 |
| 20260503224549 | 60 | 0 | 0.0 | 0.0 | 0.00 | 0.00 | 0.00 | 39 | 1015.7 |
| 20260503224044 | 60 | 0 | 0.0 | 0.9 | 0.00 | 0.00 | 0.00 | 40 | 1015.9 |
| 20260503223544 | 60 | 0 | 0.0 | 3.5 | 0.00 | 0.00 | 0.00 | 38 | 1016.0 |
| 20260503223053 | 60 | 0 | 0.0 | 3.5 | 0.00 | 0.00 | 0.00 | 38 | 1016.1 |
| 20260503222541 | 60 | 0 | 0.0 | 3.5 | 0.00 | 0.00 | 0.00 | 41 | 1016.1 |
| 20260503222044 | 61 | 0 | 0.0 | 2.6 | 0.00 | 0.00 | 0.00 | 38 | 1016.0 |
| 20260503221559 | 61 | 0 | 0.0 | 4.3 | 0.00 | 0.00 | 0.00 | 36 | 1016.1 |
| 20260503221042 | 61 | 0 | 0.0 | 4.3 | 0.00 | 0.00 | 0.00 | 37 | 1016.0 |
| 20260503220543 | 61 | 0 | 0.0 | 8.7 | 0.00 | 0.00 | 0.00 | 38 | 1016.0 |
| 20260503220053 | 61 | 0 | 0.0 | 8.7 | 0.00 | 0.00 | 0.00 | 36 | 1016.1 |
| 20260503215545 | 61 | 0 | 0.0 | 2.6 | 0.00 | 0.00 | 0.00 | 35 | 1016.1 |
| 20260503215044 | 62 | 267 | 0.0 | 2.6 | 0.00 | 0.00 | 0.00 | 36 | 1016.1 |
| 20260503214558 | 62 | 0 | 0.0 | 2.6 | 0.00 | 0.00 | 0.00 | 37 | 1016.1 |
| 20260503214044 | 62 | 0 | 0.0 | 2.6 | 0.00 | 0.00 | 0.00 | 34 | 1016.1 |
| 20260503213544 | 62 | 0 | 0.0 | 7.0 | 0.00 | 0.00 | 0.00 | 34 | 1016.2 |
| 20260503213047 | 61 | 226 | 0.0 | 7.0 | 0.00 | 0.00 | 0.00 | 37 | 1016.4 |
| 20260503212542 | 61 | 0 | 0.0 | 1.7 | 0.00 | 0.00 | 0.00 | 35 | 1016.3 |
| 20260503212042 | 62 | 0 | 0.0 | 3.5 | 0.00 | 0.00 | 0.00 | 35 | 1016.3 |
| 20260503211557 | 62 | 213 | 0.0 | 3.5 | 0.00 | 0.00 | 0.00 | 37 | 1016.3 |
| 20260503211042 | 62 | 0 | 0.0 | 2.6 | 0.00 | 0.00 | 0.00 | 38 | 1016.4 |
| 20260503210544 | 62 | 0 | 0.0 | 0.9 | 0.00 | 0.00 | 0.00 | 36 | 1016.4 |
| 20260503210052 | 62 | 0 | 0.0 | 0.0 | 0.00 | 0.00 | 0.00 | 36 | 1016.5 |
| 20260503205542 | 62 | 0 | 0.0 | 0.0 | 0.00 | 0.00 | 0.00 | 35 | 1016.5 |
| 20260503205045 | 62 | 0 | 0.0 | 3.5 | 0.00 | 0.00 | 0.00 | 37 | 1016.5 |
| 20260503204551 | 62 | 0 | 0.0 | 3.5 | 0.00 | 0.00 | 0.00 | 37 | 1016.5 |
| 20260503204044 | 62 | 0 | 0.0 | 3.5 | 0.00 | 0.00 | 0.00 | 34 | 1016.6 |
| 20260503203544 | 62 | 0 | 0.0 | 2.6 | 0.00 | 0.00 | 0.00 | 33 | 1016.6 |
| 20260503203104 | 62 | 0 | 0.0 | 2.6 | 0.00 | 0.00 | 0.00 | 37 | 1016.9 |
| 20260503202544 | 62 | 0 | 0.0 | 9.6 | 0.00 | 0.00 | 0.00 | 37 | 1017.0 |
| 20260503202044 | 62 | 0 | 0.9 | 9.6 | 0.00 | 0.00 | 0.00 | 38 | 1017.0 |
| 20260503201551 | 63 | 0 | 0.0 | 3.5 | 0.00 | 0.00 | 0.00 | 36 | 1017.1 |
| 20260503201044 | 62 | 0 | 0.0 | 2.6 | 0.00 | 0.00 | 0.00 | 37 | 1017.3 |
| 20260503200546 | 63 | 0 | 0.0 | 2.6 | 0.00 | 0.00 | 0.00 | 35 | 1017.2 |
| 20260503200047 | 62 | 0 | 0.0 | 1.7 | 0.00 | 0.00 | 0.00 | 37 | 1017.3 |
| 20260503195543 | 61 | 0 | 0.0 | 0.0 | 0.00 | 0.00 | 0.00 | 36 | 1017.3 |
| 20260503195043 | 61 | 0 | 0.0 | 7.8 | 0.00 | 0.00 | 0.00 | 43 | 1017.4 |
| 20260503194553 | 61 | 0 | 0.0 | 7.8 | 0.00 | 0.00 | 0.00 | 37 | 1017.6 |
| 20260503194043 | 61 | 0 | 0.0 | 2.6 | 0.00 | 0.00 | 0.00 | 38 | 1017.7 |
| 20260503193545 | 60 | 0 | 0.0 | 3.5 | 0.00 | 0.00 | 0.00 | 38 | 1017.8 |
| 20260503193049 | 60 | 0 | 0.0 | 3.5 | 0.00 | 0.00 | 0.00 | 35 | 1018.0 |
| 20260503192544 | 62 | 0 | 0.0 | 1.7 | 0.00 | 0.00 | 0.00 | 35 | 1018.2 |
| 20260503192044 | 61 | 0 | 0.0 | 8.7 | 0.00 | 0.00 | 0.00 | 36 | 1018.2 |
| 20260503191552 | 63 | 0 | 0.0 | 8.7 | 0.00 | 0.00 | 0.00 | 36 | 1018.2 |
| 20260503191042 | 61 | 0 | 0.0 | 4.3 | 0.00 | 0.00 | 0.00 | 38 | 1018.3 |
| 20260503190542 | 61 | 0 | 0.0 | 4.3 | 0.00 | 0.00 | 0.00 | 42 | 1018.4 |
| 20260503190058 | 61 | 217 | 0.0 | 3.5 | 0.00 | 0.00 | 0.00 | 37 | 1018.5 |
| 20260503185542 | 60 | 0 | 0.0 | 4.3 | 0.00 | 0.00 | 0.00 | 39 | 1018.6 |
| 20260503185043 | 61 | 0 | 0.0 | 4.3 | 0.00 | 0.00 | 0.00 | 39 | 1018.6 |
| 20260503184552 | 62 | 231 | 0.0 | 4.3 | 0.00 | 0.00 | 0.00 | 43 | 1018.8 |
| 20260503184046 | 61 | 0 | 0.0 | 3.5 | 0.00 | 0.00 | 0.00 | 44 | 1018.9 |
| 20260503183545 | 61 | 0 | 0.0 | 4.3 | 0.00 | 0.00 | 0.00 | 35 | 1018.9 |
| 20260503183052 | 61 | 0 | 0.0 | 4.3 | 0.00 | 0.00 | 0.00 | 35 | 1019.2 |
| 20260503182541 | 60 | 0 | 0.0 | 3.5 | 0.00 | 0.00 | 0.00 | 45 | 1019.1 |
| 20260503182044 | 61 | 0 | 0.0 | 4.3 | 0.00 | 0.00 | 0.00 | 36 | 1019.2 |
| 20260503181559 | 61 | 0 | 0.0 | 4.3 | 0.00 | 0.00 | 0.00 | 42 | 1019.3 |
| 20260503181043 | 62 | 0 | 0.0 | 1.7 | 0.00 | 0.00 | 0.00 | 38 | 1019.4 |
| 20260503180543 | 61 | 0 | 0.0 | 1.7 | 0.00 | 0.00 | 0.00 | 38 | 1019.4 |
| 20260503180055 | 61 | 0 | 0.0 | 4.3 | 0.00 | 0.00 | 0.00 | 37 | 1019.5 |
| 20260503175543 | 60 | 0 | 0.0 | 4.3 | 0.00 | 0.00 | 0.00 | 49 | 1019.5 |
| 20260503175042 | 59 | 220 | 0.0 | 3.5 | 0.00 | 0.00 | 0.00 | 44 | 1019.7 |
| 20260503174552 | 59 | 0 | 0.9 | 3.5 | 0.00 | 0.00 | 0.00 | 40 | 1019.7 |
| 20260503174042 | 56 | 0 | 0.0 | 2.6 | 0.00 | 0.00 | 0.00 | 43 | 1019.6 |
| 20260503173542 | 57 | 0 | 0.0 | 2.6 | 0.00 | 0.00 | 0.00 | 42 | 1019.7 |
| 20260503173053 | 57 | 0 | 0.0 | 2.6 | 0.00 | 0.00 | 0.00 | 43 | 1019.9 |
| 20260503172544 | 59 | 0 | 0.0 | 2.6 | 0.00 | 0.00 | 0.00 | 38 | 1019.9 |
| 20260503172044 | 58 | 0 | 0.0 | 2.6 | 0.00 | 0.00 | 0.00 | 41 | 1019.9 |
| 20260503171553 | 59 | 0 | 0.0 | 2.6 | 0.00 | 0.00 | 0.00 | 39 | 1019.9 |
| 20260503171045 | 57 | 0 | 0.0 | 2.6 | 0.00 | 0.00 | 0.00 | 44 | 1020.0 |
| 20260503170545 | 58 | 109 | 0.0 | 2.6 | 0.00 | 0.00 | 0.00 | 44 | 1020.0 |